Location: Newark
(21.1200°N, 73.4000°E)
Time: 15:36:41
(UTC+00:00)

Courier 1B Rocket - Pass Details

Date: 21 January 2020
Orbit: 920 x 1202 km, 28.2° (Epoch: 24 February)

Event Time Altitude Azimuth Distance (km) Brightness Sun altitude
Rises 05:41:37 0° 227° (SW) 3,977 8.3 42.7°
Reaches altitude 10° 05:44:39 10° 220° (SW) 2,978 7.9 43.0°
Maximum altitude 05:51:25 41° 153° (SSE) 1,492 9.8 43.8°
Drops below altitude 10° 05:57:44 10° 85° (E) 2,784 7.7 44.5°
Sets 06:00:28 0° 78° (ENE) 3,694 8.2 44.8°
